Regional Weather Roundup
Issued by NWS

Home | Current Version | Previous Version | Text Only | Print | Product List | Glossary On
Versions: 1 2 3 4 5 6 7 8 9 10 11 12 13 14 15 16 17 18 19 20 21 22 23 24 25 26 27 28 29 30 31 32 33 34 35 36 37 38 39 40 41 42 43 44 45 46 47 48 49 50
000
ASUS43 KOAX 261110
RWRNE

WEATHER ROUNDUP FOR NEBRASKA
NATIONAL WEATHER SERVICE OMAHA NE
500 AM CST SUN FEB 26 2017

NOTES: SATELLITE DATA IS BEING USED TO AUGMENT CLOUD COVER ABOVE
       12000 FEET.
       "FAIR" INDICATES FEW OR NO CLOUDS BELOW 12,000 FEET WITH NO
       SIGNIFICANT WEATHER AND/OR OBSTRUCTIONS TO VISIBILITY.

  * THESE STATIONS DO NOT REPORT WEATHER SUCH AS RAIN...SNOW OR FOG.

NEZ001>004-019>022-054>056-261200-
NEBRASKA PANHANDLE

CITY           SKY/WX    TMP DP  RH WIND       PRES   REMARKS
SCOTTSBLUFF    CLEAR      9   2  73 N6        29.82R WCI  -1
ALLIANCE       CLEAR      2  -3  80 W13       29.78S WCI -15
CHADRON        CLEAR     10   0  63 W8        29.80S WCI  -2
KIMBALL        CLEAR     15   6  66 W16       29.79S WCI  -1
SIDNEY         CLEAR     14   3  61 W12       29.81S WCI   0
$$

NEZ057>060-069>072-079>082-261200-
SOUTHWEST NEBRASKA

CITY           SKY/WX    TMP DP  RH WIND       PRES   REMARKS
NORTH PLATTE   CLEAR     14   9  80 NW6       29.85R WCI   5
IMPERIAL       CLEAR     21  14  74 W9        29.86S WCI  11
LEXINGTON      CLEAR     25  16  68 W9        29.86R WCI  15
MCCOOK         MOCLDY    22  15  75 NW8       29.89R WCI  12
OGALLALA       CLEAR     17   9  68 CALM      29.84S
$$

NEZ005>010-023>029-035>040-094-261200-
NORTH CENTRAL NEBRASKA

CITY           SKY/WX    TMP DP  RH WIND       PRES   REMARKS
VALENTINE      CLEAR     11   3  70 W10       29.79R WCI  -3
AINSWORTH      CLEAR     15   9  78 W7        29.78R WCI   5
BROKEN BOW     CLEAR     22  11  62 W12       29.82R WCI  10
O`NEILL        CLEAR     18  10  70 W12       29.79R WCI   6
ORD            CLEAR     21  10  62 W10       29.81S WCI  10
THEDFORD       CLEAR     17   9  70 W10       29.81R WCI   5
$$

NEZ041-046>049-061>064-073>077-083>087-261200-
SOUTH CENTRAL NEBRASKA

CITY           SKY/WX    TMP DP  RH WIND       PRES   REMARKS
GRAND ISLAND   CLEAR     29  18  63 SW16      29.85F WCI  17
AURORA         CLEAR     27  19  71 W12       29.85F WCI  17
HASTINGS       CLEAR     23  17  78 W5        29.87S WCI  17
HEBRON         CLOUDY    36  21  55 S18       29.91S WCI  26
HOLDREGE       CLEAR     29  13  52 W9        29.88R WCI  20
KEARNEY *      CLEAR     28  14  54 W10       29.87R WCI  19
YORK           CLEAR     28  23  80 SW12      29.85F WCI  18
$$

NEZ011>018-030>034-042>045-261200-
NORTHEAST NEBRASKA

CITY           SKY/WX    TMP DP  RH WIND       PRES   REMARKS
NORFOLK        CLEAR     19  11  70 SW12      29.81R WCI   7
ALBION         CLEAR     21  11  66 CALM      29.82S
BLAIR          CLEAR     30  21  67 SW9       29.84S WCI  22
FREMONT        CLEAR     29  20  68 W9        29.86S WCI  21
TEKAMAH        CLEAR     22  17  81 SW8       29.85R WCI  12
WAYNE          CLEAR     16  11  81 SW8       29.80S WCI   6
$$

NEZ050>053-065>068-078-088>093-261200-
SOUTHEAST NEBRASKA

CITY           SKY/WX    TMP DP  RH WIND       PRES   REMARKS
LINCOLN        CLEAR     32  22  66 SW10      29.89S WCI  24
OMAHA EPPLEY   MOCLDY    34  21  59 W12       29.86S WCI  25
BEATRICE       CLOUDY    34  24  66 SW14      29.90F WCI  25
FALLS CITY     PTCLDY    31  19  61 SW10      29.94S WCI  22
NEBRASKA CITY  MOCLDY    31  20  65 SW10      29.89S WCI  22
PLATTSMOUTH    CLEAR     31  20  63 SW10      29.88R WCI  23
$$

NEZ044-045-051>053-067-261200-
OMAHA AREA

CITY           SKY/WX    TMP DP  RH WIND       PRES   REMARKS
OMAHA EPPLEY   MOCLDY    34  21  59 W12       29.86S WCI  25
BLAIR          CLEAR     30  21  67 SW9       29.84S WCI  22
FREMONT        CLEAR     29  20  68 W9        29.86S WCI  21
MILLARD        CLEAR     33  24  69 SW7       29.87R WCI  27
OFFUTT AFB     CLEAR     31  20  64 SW10      29.87R WCI  22
PLATTSMOUTH    CLEAR     31  20  63 SW10      29.88R WCI  23
WAHOO          FAIR      29  19  67 W7        29.87R WCI  22
$$



USA.gov is the U.S. government's official web portal to all federal, state and local government web resources and services.